Hourly Data Report for October 07, 2013

All times are specified in Local Standard Time (LST). Add 1 hour to adjust for Daylight Saving Time where and when it is observed.

CLYDE RIVER A
NUNAVUT

70°29'09.000" N
68°31'01.000" W
26.50 m
2400804
71090
YCY

Download Data

Hourly Data (October 2013)
Hourly Data Report for October 7, 2013
Temp Definition
°C
Dew Point Temp Definition
°C
Rel Hum Definition
%
Wind Dir Definition
10's deg

Wind Spd Definition
km/h
Visibility Definition
km
Stn Press Definition
kPa
Hmdx Definition


Wind Chill Definition


Weather Definition


TIME
00:00 Legend Double Dagger -9.7 -13.3 75 29 26 16.1 101.87   -19 LegendNANA
01:00 Legend Double Dagger -8.6 -12.3 75 28 22 16.1 101.89   -16 LegendNANA
02:00 Legend Double Dagger -8.2 -12.2 73 28 24 16.1 101.89   -16 LegendNANA
03:00 Legend Double Dagger -7.3 -11.7 71 23 11 16.1 101.92   -12 LegendNANA
04:00 Legend Double Dagger -6.6 -11.7 67 26 15 16.1 101.89   -13 LegendNANA
05:00 Legend Double Dagger -6.8 -12.0 67 26 13 16.1 101.92   -12 LegendNANA
06:00 Legend Double Dagger -7.2 -11.7 71 26 13 16.1 101.92   -13 LegendNANA
07:00 Legend Double Dagger -7.1 -11.2 73 26 15 16.1 101.91   -13 LegendNANA
08:00 Legend Double Dagger -7.0 -10.7 75 29 15 16.1 101.87   -13 LegendNANA
09:00 Legend Double Dagger -6.8 -9.2 83 29 13 8.1 101.85   -12 LegendNANA
10:00 Legend Double Dagger -6.5 -8.8 84 27 8 16.1 101.82   -10 LegendNANA
11:00 Legend Double Dagger -6.2 -9.0 81 29 11 14.5 101.80   -11 LegendNANA
12:00 Legend Double Dagger -5.8 -8.1 84 LegendMM 4 2.0 101.80   -8 LegendNANA
13:00 Legend Double Dagger -7.1 -9.2 85 28 9 16.1 101.78   -11 LegendNANA
14:00 Legend Double Dagger -7.2 -9.5 84 34 18 16.1 101.75   -14 LegendNANA
15:00 Legend Double Dagger -7.4 -9.5 85 31 9 11.3 101.75   -12 LegendNANA
16:00 Legend Double Dagger -7.9 -10.3 83 34 17 16.1 101.72   -15 LegendNANA
17:00 Legend Double Dagger -6.7 -9.1 83 31 18 16.1 101.71   -13 LegendNANA
18:00 Legend Double Dagger -6.6 -8.8 84 29 15 16.1 101.70   -13 LegendNANA
19:00 Legend Double Dagger -5.8 -8.5 81 28 8 12.9 101.71   -10 LegendNANA
20:00 Legend Double Dagger -6.8 -8.5 88 33 15 16.1 101.64   -13 LegendNANA
21:00 Legend Double Dagger -6.4 -8.4 86 31 11 11.3 101.64   -11 LegendNANA
22:00 Legend Double Dagger -6.9 -8.6 88 31 9 16.1 101.62   -11 LegendNANA
23:00 Legend Double Dagger -6.8 -8.2 90 31 11 16.1 101.59   -12 LegendNANA

Notes on Data Quality.

Legend

  • E = Estimated
  • M = Missing
  • NA = Not Available
  • ‡ = Partner data that is not subject to review by the National Climate Archives
Date modified: